Location: Hanover
(52.3667°N, 9.7167°E)
Time: 03:31:34
(UTC+02:00)

ARIANE 6 FM1 Upper Stage - Pass Details

Date: 24 September 2024
Orbit: 564 x 594 km, 62.0° (Epoch: 06 October)

Event Time Altitude Azimuth Distance (km) Brightness Sun altitude
Rises 22:12:17 0° 258° (WSW) 2,794 6.8 -26.3°
Reaches altitude 10° 22:14:39 10° 267° (W) 1,903 5.9 -26.6°
Maximum altitude 22:18:39 36° 335° (NNW) 934 4.2 -27.1°
Enters shadow 22:19:58 29° 12° (NNE) 1,085 4.3 -27.2°
